SCP
-0 0 -0 -0 0 0 0 0 0 0 0 0 0 0 0 0 0 0 0 0 0 0 0 0 0 0 0 0 0 0 0 0
-0 0 -0 -0 0 0 0 0 0 0 0 0 0 0 0 0 0 0 0 0 0 0 0 0 0 0 0 0 -0 0 0 0
-0 0 0 0 0 0 0 0 0 0 0 0 0 0 0 0 0 0 0 0 0 0 0 0 0 0 0 0 0 0 0 0
-0 0 0 0 0 0 0 0 0 0 0 0 0 0 0 0 0 0 0 0 0 0 0 0 0 0 0 0 0 0 0 0
-0 0 0 0 0 0 0 0 0 0 0 0 0 0 0 0 0 0 0 0 0 0 0 0 0 0 0 0 0 0 0 0
0 0 0 0 0 0 0 0 0 0 0 0 0 0 0 0 0 0 0 0 0 0 0 0 0 0 0 0 0 0 0 0
0 0 0 0 0 0 0 0 0 0 0 0 0 0 0 0 0 0 0 0 0 0 0 0 0 0 0 0 0 0 0 0
0 0 0 0 0 0 0 0 0 0 0 0 0 0 0 0 0 0 0 0 0 0 0 0 0 0 0 0 0 0 0 0
0 0 0 0 0 0 0 0 0 0 0 0 0 0 0 0 0 0 0 0 0 0 0 0 0 0 0 0 0 0 0 0
0 0 0 0 0 0 0 0 0 0 0 0 0 0 0 0 0 0 0 0 0 0 0 0 0 0 0 0 0 0 0 0
0 0 0 0 0 0 0 0 0 0 0 0 0 0 0 0 0 0 0 0 0 0 0 0 0 0 0 0 0 0 0 0
0 0 0 0 0 0 0 0 0 0 0 0 0 0 0 0 0 0 0 0 0 0 0 0 0 0 0 0 0 0 0 0
0 0 0 0 0 0 0 0 0 0 0 0 0 0 0 0 0 0 0 0 0 0 0 0 0 0 0 0 0 0 0 0
0 0 0 0 0 0 0 0 0 0 0 0 0 0 0 0 0 0 0 0 0 0 0 0 0 0 0 0 0 0 0 0
0 0 0 0 0 0 0 0 0 0 0 0 0 0 0 0 0 0 0 0 0 0 0 0 0 0 0 0 0 0 0 0
0 0 0 0 0 0 0 0 0 0 0 0 0 0 0 0 0 0 0 0 0 0 0 0 0 0 0 0 0 0 0 0
0 0 0 0 0 0 0 0 0 0 0 0 0 0 0 0 0 0 0 0 0 0 0 0 0 0 0 0 0 0 0 0
0 0 0 0 0 0 0 0 0 0 0 0 0 0 0 0 0 0 0 0 0 0 0 0 0 0 0 0 0 0 0 0
0 0 0 0 0 0 0 0 0 0 0 0 0 0 0 0 0 0 0 0 0 0 0 0 0 0 0 0 0 0 0 0
Wind_Speed_500mb
41 40 39 40 33 24 33 29 27 33 31 25 30 25 17 12 4 4 11 15 8 15 18 19 23 27 34 41 44 41 40 42
47 44 44 40 37 34 34 32 29 36 30 35 30 26 22 18 12 8 6 8 9 10 14 18 23 30 36 43 47 49 42 43
59 55 54 47 44 40 33 34 31 30 28 25 19 19 20 21 11 6 4 0 4 9 14 18 23 29 32 41 46 49 43 40
70 66 63 54 49 45 36 34 32 27 32 29 23 30 25 28 18 16 8 6 11 14 17 19 24 31 33 38 43 45 44 38
77 74 70 63 54 45 38 35 36 27 35 29 31 35 30 30 27 17 14 18 19 19 21 23 26 31 35 41 43 42 38 38
75 77 71 64 56 49 41 37 38 33 36 34 30 32 28 31 35 25 22 25 22 25 26 26 35 39 39 43 47 43 37 35
68 72 68 64 56 47 44 38 38 36 28 39 31 24 22 24 30 24 24 27 24 30 31 33 39 40 42 46 48 42 38 36
66 70 70 64 57 49 44 36 42 37 32 32 32 29 28 21 22 16 20 11 19 28 28 33 40 41 41 44 42 43 44 43
40 51 58 56 51 49 49 42 42 40 36 32 30 25 20 8 9 14 19 15 10 17 28 38 42 42 42 39 38 37 38 41
44 40 48 48 49 52 48 46 39 43 38 35 29 31 28 23 27 30 18 14 19 25 32 39 38 35 33 30 26 27 30 35
14 15 23 19 55 49 51 45 31 40 37 36 33 33 30 29 29 24 22 26 28 32 34 26 22 24 29 33 37 40 40 41
4 4 8 8 16 53 51 39 36 38 49 44 42 36 26 27 31 27 28 27 28 30 26 29 34 38 42 45 45 47 46 42
20 22 30 18 31 53 54 41 43 57 50 42 33 28 25 24 21 21 24 27 30 31 34 40 45 43 42 43 44 44 43 51
28 32 37 48 51 55 49 51 51 43 37 30 21 14 14 16 18 21 25 28 32 36 39 39 40 41 39 41 41 46 56 64
31 35 41 45 46 47 44 40 33 29 23 16 9 6 9 12 17 22 28 30 34 36 35 34 38 40 38 38 46 51 58 58
42 43 47 48 50 48 43 39 31 22 14 8 5 4 9 15 19 23 27 32 35 36 35 35 31 32 35 40 46 56 56 53
43 41 42 45 44 43 39 32 22 9 7 6 3 7 13 16 19 24 29 36 33 29 28 28 30 32 38 43 51 52 53 50
50 47 44 40 37 32 28 22 15 11 6 2 2 6 13 18 23 28 30 27 26 24 25 31 34 36 40 41 47 54 59 54
50 48 44 37 31 27 25 19 15 8 3 4 10 12 17 23 25 25 23 23 23 25 26 26 29 37 37 50 57 63 60 51
Wind_Direction_500mb
189 181 198 206 217 214 189 199 180 171 169 162 148 143 140 179 177 152 107 113 90 45 49 32 21 22 18 20 16 13 3 356
194 184 197 204 209 208 206 206 191 181 175 165 160 152 171 199 234 191 132 92 69 32 27 18 7 10 7 6 7 4 359 352
191 186 193 203 209 216 219 215 207 197 180 159 155 162 189 225 242 231 179 341 15 354 354 357 356 360 357 356 360 357 354 356
188 187 193 198 210 213 219 221 216 208 175 166 189 192 205 215 233 269 230 276 302 319 330 343 344 344 348 350 354 350 345 344
194 192 193 201 210 214 220 223 219 217 180 182 197 196 212 235 247 253 262 296 304 313 320 328 332 337 340 346 348 344 337 334
198 198 204 207 207 211 214 219 218 221 201 194 209 217 234 242 237 241 255 285 302 315 317 322 328 333 337 338 338 340 335 330
206 205 203 202 204 206 209 212 215 220 217 196 207 212 222 221 218 241 282 296 314 310 312 317 324 326 330 332 333 335 339 331
196 195 197 196 201 208 207 211 205 216 219 211 209 210 239 237 250 280 311 291 287 291 298 309 318 322 327 330 332 335 334 331
181 195 197 202 207 209 204 205 204 208 217 218 213 214 223 236 229 240 234 240 225 268 289 301 311 323 329 332 329 327 328 326
83 189 198 210 211 211 212 206 201 201 213 209 209 213 220 220 234 243 214 248 267 281 295 308 318 331 336 327 322 319 313 308
97 91 89 198 214 215 209 207 194 191 205 196 189 200 210 225 243 250 262 271 277 293 308 321 319 306 301 304 307 306 306 302
38 338 334 20 180 210 197 182 177 189 178 177 182 189 207 230 253 264 273 285 292 297 298 296 298 303 304 308 311 311 309 309
66 69 68 81 131 179 167 171 165 163 167 171 174 187 214 246 260 265 278 293 297 296 295 299 305 307 311 316 317 313 319 324
96 91 89 107 125 144 149 145 148 155 166 174 172 203 244 256 262 281 292 294 296 303 311 313 313 315 320 318 314 327 332 330
108 106 100 104 110 116 123 130 141 151 161 167 176 212 256 271 286 297 301 308 315 320 319 317 319 325 324 319 327 333 332 338
118 117 110 111 114 118 123 127 133 141 137 133 134 234 282 297 307 311 315 317 319 322 320 326 332 331 325 325 333 333 338 341
127 126 124 124 126 127 128 127 130 152 141 139 161 269 295 319 320 315 316 321 332 338 348 345 340 335 330 329 329 334 337 338
133 131 133 135 136 143 140 147 158 164 150 123 312 318 318 324 321 321 330 340 348 359 352 349 345 337 330 329 329 331 336 335
139 141 141 142 148 152 152 158 157 154 148 337 337 333 331 325 326 337 343 353 3 353 357 350 343 337 333 327 329 335 339 339
Wind_Speed_850mb
41 40 39 40 33 24 33 29 27 33 31 25 30 25 17 12 4 4 11 15 8 15 18 19 23 27 34 41 44 41 40 42
47 44 44 40 37 34 34 32 29 36 30 35 30 26 22 18 12 8 6 8 9 10 14 18 23 30 36 43 47 49 42 43
59 55 54 47 44 40 33 34 31 30 28 25 19 19 20 21 11 6 4 0 4 9 14 18 23 29 32 41 46 49 43 40
70 66 63 54 49 45 36 34 32 27 32 29 23 30 25 28 18 16 8 6 11 14 17 19 24 31 33 38 43 45 44 38
77 74 70 63 54 45 38 35 36 27 35 29 31 35 30 30 27 17 14 18 19 19 21 23 26 31 35 41 43 42 38 38
75 77 71 64 56 49 41 37 38 33 36 34 30 32 28 31 35 25 22 25 22 25 26 26 35 39 39 43 47 43 37 35
68 72 68 64 56 47 44 38 38 36 28 39 31 24 22 24 30 24 24 27 24 30 31 33 39 40 42 46 48 42 38 36
66 70 70 64 57 49 44 36 42 37 32 32 32 29 28 21 22 16 20 11 19 28 28 33 40 41 41 44 42 43 44 43
40 51 58 56 51 49 49 42 42 40 36 32 30 25 20 8 9 14 19 15 10 17 28 38 42 42 42 39 38 37 38 41
44 40 48 48 49 52 48 46 39 43 38 35 29 31 28 23 27 30 18 14 19 25 32 39 38 35 33 30 26 27 30 35
14 15 23 19 55 49 51 45 31 40 37 36 33 33 30 29 29 24 22 26 28 32 34 26 22 24 29 33 37 40 40 41
4 4 8 8 16 53 51 39 36 38 49 44 42 36 26 27 31 27 28 27 28 30 26 29 34 38 42 45 45 47 46 42
20 22 30 18 31 53 54 41 43 57 50 42 33 28 25 24 21 21 24 27 30 31 34 40 45 43 42 43 44 44 43 51
28 32 37 48 51 55 49 51 51 43 37 30 21 14 14 16 18 21 25 28 32 36 39 39 40 41 39 41 41 46 56 64
31 35 41 45 46 47 44 40 33 29 23 16 9 6 9 12 17 22 28 30 34 36 35 34 38 40 38 38 46 51 58 58
42 43 47 48 50 48 43 39 31 22 14 8 5 4 9 15 19 23 27 32 35 36 35 35 31 32 35 40 46 56 56 53
43 41 42 45 44 43 39 32 22 9 7 6 3 7 13 16 19 24 29 36 33 29 28 28 30 32 38 43 51 52 53 50
50 47 44 40 37 32 28 22 15 11 6 2 2 6 13 18 23 28 30 27 26 24 25 31 34 36 40 41 47 54 59 54
50 48 44 37 31 27 25 19 15 8 3 4 10 12 17 23 25 25 23 23 23 25 26 26 29 37 37 50 57 63 60 51
Wind_Direction_850mb
189 181 198 206 217 214 189 199 180 171 169 162 148 143 140 179 177 152 107 113 90 45 49 32 21 22 18 20 16 13 3 356
194 184 197 204 209 208 206 206 191 181 175 165 160 152 171 199 234 191 132 92 69 32 27 18 7 10 7 6 7 4 359 352
191 186 193 203 209 216 219 215 207 197 180 159 155 162 189 225 242 231 179 341 15 354 354 357 356 360 357 356 360 357 354 356
188 187 193 198 210 213 219 221 216 208 175 166 189 192 205 215 233 269 230 276 302 319 330 343 344 344 348 350 354 350 345 344
194 192 193 201 210 214 220 223 219 217 180 182 197 196 212 235 247 253 262 296 304 313 320 328 332 337 340 346 348 344 337 334
198 198 204 207 207 211 214 219 218 221 201 194 209 217 234 242 237 241 255 285 302 315 317 322 328 333 337 338 338 340 335 330
206 205 203 202 204 206 209 212 215 220 217 196 207 212 222 221 218 241 282 296 314 310 312 317 324 326 330 332 333 335 339 331
196 195 197 196 201 208 207 211 205 216 219 211 209 210 239 237 250 280 311 291 287 291 298 309 318 322 327 330 332 335 334 331
181 195 197 202 207 209 204 205 204 208 217 218 213 214 223 236 229 240 234 240 225 268 289 301 311 323 329 332 329 327 328 326
83 189 198 210 211 211 212 206 201 201 213 209 209 213 220 220 234 243 214 248 267 281 295 308 318 331 336 327 322 319 313 308
97 91 89 198 214 215 209 207 194 191 205 196 189 200 210 225 243 250 262 271 277 293 308 321 319 306 301 304 307 306 306 302
38 338 334 20 180 210 197 182 177 189 178 177 182 189 207 230 253 264 273 285 292 297 298 296 298 303 304 308 311 311 309 309
66 69 68 81 131 179 167 171 165 163 167 171 174 187 214 246 260 265 278 293 297 296 295 299 305 307 311 316 317 313 319 324
96 91 89 107 125 144 149 145 148 155 166 174 172 203 244 256 262 281 292 294 296 303 311 313 313 315 320 318 314 327 332 330
108 106 100 104 110 116 123 130 141 151 161 167 176 212 256 271 286 297 301 308 315 320 319 317 319 325 324 319 327 333 332 338
118 117 110 111 114 118 123 127 133 141 137 133 134 234 282 297 307 311 315 317 319 322 320 326 332 331 325 325 333 333 338 341
127 126 124 124 126 127 128 127 130 152 141 139 161 269 295 319 320 315 316 321 332 338 348 345 340 335 330 329 329 334 337 338
133 131 133 135 136 143 140 147 158 164 150 123 312 318 318 324 321 321 330 340 348 359 352 349 345 337 330 329 329 331 336 335
139 141 141 142 148 152 152 158 157 154 148 337 337 333 331 325 326 337 343 353 3 353 357 350 343 337 333 327 329 335 339 339